Home   Weather   Norfolk   Past weeks

Flag for USA Past Weather in Norfolk, Virginia, USA — Yesterday and Last 2 Weeks

Now
58 °F

Mostly cloudy.


Feels Like: 55 °F
Forecast: 54 / 56 °F
Wind: 14 mph from Northeast

Location: Norfolk Naval Air Station

Current Time: Apr 23, 2017 at 11:59:00 am

Latest Report: Apr 23, 2017 at 10:59 am


Visibility: 10 mi

Pressure: 30.09 "Hg

Humidity: 75%

Dew Point: 50 °F

Location of NorfolkLocation

Past Weather in Norfolk — Graph

°F

Norfolk Temperature Yesterday

Maximum temperature yesterday: 77 °F (at 10:59 am)
Minimum temperature yesterday: 56 °F (at 11:59 pm)
Average temperature yesterday: 66 °F

High & Low Weather Summary for the Past Weeks

 TemperatureHumidityPressure
High88 °F (Apr 21, 1:59 pm)93% (Apr 13, 3:59 am)30.43 "Hg (Apr 13, 3:59 am)
Low40 °F (Apr 9, 4:59 am)20% (Apr 8, 1:59 pm)29.81 "Hg (Apr 21, 6:59 pm)
Average65 °F63%30.17 "Hg
* Reported Apr 8 10:59 am — Apr 23 10:59 am, Norfolk, Weather by CustomWeather, © 2017

Note: Actual official high and low records may vary slightly from our data, if they occured in-between our weather recording intervals... More about our weather records

Advertising

Norfolk Weather History for the Previous 24 Hours

Scroll right to see more
 ConditionsComfort  
Time TempWeatherWind HumidityBarometerVisibility
10:59 am
Sun, Apr 23
58 °FMostly cloudy.14 mph75%30.09 "Hg10 mi
9:59 am56 °FMostly cloudy.16 mph77%30.08 "Hg9 mi
9:07 am57 °FFog.14 mph81%30.08 "Hg6 mi
7:59 am55 °FMostly cloudy.13 mph80%30.07 "Hg7 mi
6:59 am56 °FMostly cloudy.10 mph81%30.03 "Hg10 mi
5:59 am55 °FLight rain. Overcast.14 mph74%30.02 "Hg10 mi
4:59 am55 °FLight rain. Mostly cloudy.14 mph87%30.00 "Hg10 mi
4:16 am55 °FLight rain. Fog.12 mph90%29.99 "Hg4 mi
3:59 am56 °FOvercast.13 mph87%30.00 "Hg8 mi
2:59 am56 °FLight rain. Overcast.8 mph87%29.99 "Hg8 mi
2:15 am57 °FOvercast.10 mph83%30.01 "Hg10 mi
1:59 am57 °FOvercast.9 mph83%30.01 "Hg10 mi
12:59 am56 °FOvercast.13 mph87%30.00 "Hg10 mi
12:16 am56 °FOvercast.9 mph87%30.00 "Hg9 mi
11:59 pm
Sat, Apr 22
56 °FLight rain. Fog.12 mph87%29.99 "Hg5 mi
10:56 pm57 °FMostly cloudy.9 mph81%30.00 "Hg10 mi
9:59 pm57 °FMostly cloudy.15 mph87%29.98 "Hg10 mi
8:59 pm57 °FLight rain. Passing clouds.14 mph87%29.95 "Hg10 mi
7:59 pm57 °FThunderstorms. Fog.16 mph90%29.93 "Hg4 mi
7:32 pm58 °FThunderstorms. Fog.15 mph90%29.94 "Hg3 mi
7:03 pm58 °FThunderstorms. Fog.15 mph90%29.93 "Hg2 mi
5:59 pm59 °FDrizzle. Low clouds.18 mph84%29.89 "Hg9 mi
4:59 pm60 °FDrizzle. Low clouds.14 mph86%29.89 "Hg5 mi
3:59 pm62 °FDrizzle. Overcast.13 mph83%29.86 "Hg5 mi
1:59 pm69 °FDrizzle. Broken clouds.9 mph76%29.88 "Hg5 mi
11:59 am77 °FPartly sunny.7 mph69%29.87 "Hg8 mi
Weather by CustomWeather, © 2017

See weather overviewHow to use our weather pages